Home   Weather   Morristown   Past weeks
Flag for USA

Past Weather in Morristown, New Jersey, USA — Yesterday and Last 2 Weeks

Now
46 °F

Overcast.


Feels Like: 46 °F
Forecast: 48 / 38 °F
Wind: No wind

Location: Morristown Municipal

Current Time: Mar 25, 2019 at 6:37:19 pm

Latest Report: Mar 25, 2019 at 5:45 pm


Visibility: 10 mi

Pressure: 30.03 "Hg

Humidity: 43%

Dew Point: 25 °F

Location of MorristownLocation

Past Weather in Morristown — Graph

°F

Morristown Temperature Yesterday

Maximum temperature yesterday: 59 °F (at 2:55 pm)
Minimum temperature yesterday: 25 °F (at 6:15 am)
Average temperature yesterday: 42 °F

High & Low Weather Summary for the Past Weeks

 TemperatureHumidityPressure
High75 °F (Mar 15, 3:45 pm)100% (Mar 10, 4:45 pm)30.45 "Hg (Mar 10, 4:45 pm)
Low23 °F (Mar 13, 3:55 am)21% (Mar 24, 1:50 pm)29.32 "Hg (Mar 22, 4:35 am)
Average40 °F66%30.07 "Hg
* Reported Mar 10 4:45 pm — Mar 25 4:50 pm, Morristown. Weather by CustomWeather, © 2019

Note: Actual official high and low records may vary slightly from our data, if they occured in-between our weather recording intervals... More about our weather records

Advertising

Morristown Weather History for the Previous 24 Hours

Scroll right to see more
 ConditionsComfort  
Time TempWeatherWind HumidityBarometerVisibility
4:50 pm
Mon, Mar 25
48 °FOvercast.3 mph37%30.06 "Hg10 mi
3:45 pm46 °FOvercast.5 mph43%30.08 "Hg10 mi
2:45 pm50 °FOvercast.6 mph43%30.07 "Hg10 mi
1:45 pm48 °FOvercast.9 mph50%30.09 "Hg10 mi
12:50 pm46 °FOvercast.9 mph57%30.10 "Hg10 mi
11:45 am46 °FMore clouds than sun.8 mph53%30.09 "Hg10 mi
10:50 am46 °FBroken clouds.7 mph53%30.10 "Hg10 mi
9:45 am48 °FBroken clouds.7 mph50%30.08 "Hg10 mi
8:45 am50 °FPartly sunny.7 mph47%30.05 "Hg10 mi
7:45 am50 °FPartly sunny.5 mph43%30.03 "Hg10 mi
6:46 am50 °FPassing clouds.3 mph43%30.01 "Hg10 mi
6:15 am50 °FPassing clouds.7 mph40%30.00 "Hg10 mi
5:55 am50 °FOvercast.7 mph37%29.99 "Hg10 mi
5:35 am52 °FMostly cloudy.6 mph38%30.00 "Hg10 mi
5:15 am52 °FMostly cloudy.No wind47%30.01 "Hg10 mi
4:55 am54 °FMostly cloudy.No wind44%30.00 "Hg10 mi
4:35 am52 °FOvercast.No wind47%30.00 "Hg10 mi
4:15 am54 °FOvercast.No wind44%30.01 "Hg10 mi
3:55 am54 °FOvercast.No wind44%30.01 "Hg10 mi
3:35 am54 °FMostly cloudy.No wind44%30.01 "Hg10 mi
3:15 am54 °FMostly cloudy.No wind44%30.01 "Hg10 mi
2:55 am54 °FOvercast.10 mph47%30.02 "Hg10 mi
2:35 am54 °FOvercast.No wind47%30.02 "Hg10 mi
2:15 am54 °FOvercast.9 mph44%30.02 "Hg10 mi
1:55 am52 °FOvercast.No wind41%30.03 "Hg10 mi
1:35 am50 °FOvercast.No wind43%30.03 "Hg10 mi
1:15 am50 °FMostly cloudy.No wind40%30.03 "Hg10 mi
12:55 am50 °FMostly cloudy.No wind40%30.04 "Hg10 mi
12:15 am48 °FMostly cloudy.No wind46%30.05 "Hg10 mi
11:55 pm
Sun, Mar 24
50 °FMostly cloudy.No wind40%30.05 "Hg10 mi
11:35 pm50 °FMostly cloudy.No wind37%30.05 "Hg10 mi
11:15 pm50 °FOvercast.No wind37%30.05 "Hg10 mi
10:55 pm48 °FOvercast.No wind43%30.05 "Hg10 mi
10:35 pm46 °FOvercast.No wind50%30.05 "Hg10 mi
9:45 pm46 °FPassing clouds.No wind46%30.06 "Hg10 mi
8:45 pm54 °FPassing clouds.3 mph30%30.05 "Hg10 mi
7:45 pm57 °FPassing clouds.7 mph27%30.03 "Hg10 mi
6:45 pm57 °FHigh level clouds.13 mph27%30.03 "Hg10 mi
Weather by CustomWeather, © 2019

See weather overview